{"data":{"norad_id":58484,"intl_designator":"2023-186M","name":"STARLINK-30991","alt_names":[],"object_type":"PAYLOAD","status":"ACTIVE","operator":null,"country":"US","launch_date":"2023-12-03","launch_site_code":"AFETR","launch_vehicle":null,"mission":null,"orbit_class":"UNKNOWN","rcs_meters":null,"size_class":null,"mass_kg":null,"dimensions":null,"purposes":["comms"],"wikipedia_slug":null,"has_3d_model":false,"image_url":null,"decayed_at":null,"tle_current":{"epoch":"2026-09-20T19:44:20.375520Z","epoch_age_seconds":118861,"freshness":"FRESH","line1":"1 58484U 23186M   26263.82245805  .00002964  00000+0  11710-3 0  9995","line2":"2 58484  43.0038  41.2568 0002011 283.2545  76.8083 15.27602427155726","mean_motion":15.27602427,"eccentricity":0.0002011,"inclination_deg":43.0038,"raan_deg":41.2568,"arg_perigee_deg":283.2545,"mean_anomaly_deg":76.8083,"bstar":0.0001171,"rev_number":15572,"period_min":94.265364766928,"perigee_km":481.60217133587,"apogee_km":484.36171337448,"semimajor_km":6861.1189423552,"source":"CELESTRAK","updated_at":"2026-09-21T09:00:33.882330Z"}}}